ITY3321 LIEO-LIME

Flight info

Callsign ITY3321
Flight time 0h 51m
Altitude 18000
Route BATOX L5 TINTO/N0427F320 DCT ROSKI DCT LOMED/N0350F180 L995 OSBUL
Aircraft A320/M-SDE3FGHIRWY/LB1

Departure

Time 2026-05-07 13:23
Airport Olbia Costa Smeralda Airport (LIEO)

Arrival

Time 2026-05-07 14:15
Airport Il Caravaggio International Airport (LIME)
Time Latitude Longitude Altitude Speed Heading
2026-05-07 13:04 40.90265 9.51711 34 ft 0 kts 326°
2026-05-07 13:15 40.90259 9.51716 34 ft 2 kts 326°
2026-05-07 13:15 40.90245 9.51729 33 ft 2 kts 326°
2026-05-07 13:15 40.90231 9.51741 32 ft 2 kts 326°
2026-05-07 13:15 40.90217 9.51754 34 ft 2 kts 326°
2026-05-07 13:16 40.90202 9.51767 34 ft 2 kts 326°
2026-05-07 13:16 40.90197 9.51771 33 ft 0 kts 326°
2026-05-07 13:19 40.90202 9.51761 33 ft 0 kts 301°
2026-05-07 13:19 40.90203 9.51758 33 ft 1 kts 294°
2026-05-07 13:19 40.90204 9.51740 32 ft 3 kts 267°
2026-05-07 13:19 40.90193 9.51708 34 ft 5 kts 240°
2026-05-07 13:20 40.90170 9.51661 34 ft 7 kts 234°
2026-05-07 13:20 40.90139 9.51609 34 ft 7 kts 231°
2026-05-07 13:20 40.90114 9.51564 34 ft 6 kts 237°
2026-05-07 13:20 40.90088 9.51510 34 ft 8 kts 237°
2026-05-07 13:21 40.90033 9.51496 34 ft 10 kts 154°
2026-05-07 13:21 40.89960 9.51508 34 ft 12 kts 197°
2026-05-07 13:21 40.89894 9.51421 34 ft 14 kts 234°
2026-05-07 13:21 40.89841 9.51320 34 ft 13 kts 235°
2026-05-07 13:22 40.89793 9.51228 34 ft 12 kts 235°
2026-05-07 13:22 40.89748 9.51146 34 ft 11 kts 230°
2026-05-07 13:22 40.89676 9.51114 34 ft 12 kts 165°
2026-05-07 13:22 40.89629 9.51197 34 ft 13 kts 103°
2026-05-07 13:23 40.89665 9.51384 33 ft 41 kts 59°
2026-05-07 13:23 40.89960 9.51947 33 ft 107 kts 54°
2026-05-07 13:23 40.90483 9.52959 63 ft 154 kts 58°
2026-05-07 13:23 40.91055 9.54167 680 ft 155 kts 58°
2026-05-07 13:24 40.91643 9.55385 1365 ft 162 kts 57°
2026-05-07 13:24 40.92318 9.56705 1725 ft 185 kts 55°
2026-05-07 13:24 40.93104 9.58149 2013 ft 206 kts 54°
2026-05-07 13:24 40.94009 9.59795 2361 ft 229 kts 55°
2026-05-07 13:25 40.94963 9.61533 3121 ft 236 kts 55°
2026-05-07 13:25 40.95931 9.63309 3980 ft 240 kts 54°
2026-05-07 13:25 40.96911 9.65116 4859 ft 244 kts 54°
2026-05-07 13:25 40.97891 9.66933 5674 ft 248 kts 54°
2026-05-07 13:26 40.98897 9.68822 6441 ft 257 kts 56°
2026-05-07 13:26 41.00101 9.70684 6903 ft 276 kts 36°
2026-05-07 13:26 41.01858 9.71766 7603 ft 283 kts 17°
2026-05-07 13:26 41.03760 9.72542 8437 ft 287 kts 16°
2026-05-07 13:27 41.05686 9.73317 9281 ft 291 kts 16°
2026-05-07 13:27 41.07647 9.74104 10103 ft 296 kts 16°
2026-05-07 13:27 41.09685 9.74925 10471 ft 317 kts 16°
2026-05-07 13:27 41.11843 9.75800 10768 ft 337 kts 16°
2026-05-07 13:28 41.14120 9.76727 11381 ft 345 kts 16°
2026-05-07 13:28 41.16459 9.77605 12068 ft 351 kts
2026-05-07 13:28 41.18895 9.77979 12760 ft 355 kts
2026-05-07 13:28 41.21365 9.78307 13472 ft 359 kts
2026-05-07 13:29 41.23870 9.78638 14127 ft 364 kts
2026-05-07 13:29 41.26379 9.78968 14738 ft 368 kts
2026-05-07 13:29 41.28938 9.79309 15364 ft 372 kts
2026-05-07 13:29 41.31527 9.79658 15985 ft 375 kts
2026-05-07 13:30 41.34140 9.80010 16590 ft 379 kts
2026-05-07 13:30 41.36790 9.80363 17225 ft 384 kts
2026-05-07 13:30 41.39461 9.80718 17838 ft 388 kts
2026-05-07 13:30 41.42161 9.81081 18410 ft 391 kts
2026-05-07 13:31 41.44882 9.81451 18940 ft 395 kts
2026-05-07 13:31 41.47624 9.81822 19481 ft 397 kts
2026-05-07 13:31 41.50383 9.82195 20021 ft 400 kts
2026-05-07 13:31 41.53126 9.82565 20552 ft 402 kts
2026-05-07 13:32 41.55924 9.82944 21077 ft 405 kts
2026-05-07 13:32 41.58745 9.83324 21598 ft 407 kts
2026-05-07 13:32 41.61583 9.83703 22090 ft 411 kts
2026-05-07 13:32 41.64438 9.84082 22585 ft 413 kts
2026-05-07 13:33 41.67313 9.84468 23075 ft 416 kts 360°
2026-05-07 13:33 41.70209 9.84859 23555 ft 419 kts 360°
2026-05-07 13:33 41.73120 9.85253 23948 ft 422 kts 359°
2026-05-07 13:33 41.76011 9.85644 24323 ft 425 kts 359°
2026-05-07 13:34 41.78965 9.86040 24696 ft 428 kts 360°
2026-05-07 13:34 41.84945 9.86849 25410 ft 434 kts 360°
2026-05-07 13:34 41.87963 9.87261 25777 ft 437 kts 359°
2026-05-07 13:35 41.91000 9.87679 26142 ft 440 kts 359°
2026-05-07 13:35 41.94058 9.88100 26500 ft 442 kts 359°
2026-05-07 13:35 41.97137 9.88523 26854 ft 445 kts 359°
2026-05-07 13:35 42.00226 9.88942 27229 ft 447 kts 359°
2026-05-07 13:36 42.03296 9.89359 27583 ft 450 kts 359°
2026-05-07 13:36 42.06423 9.89783 27929 ft 452 kts 359°
2026-05-07 13:36 42.09563 9.90213 28278 ft 455 kts 359°
2026-05-07 13:36 42.12717 9.90647 28620 ft 457 kts 359°
2026-05-07 13:37 42.15891 9.91090 28954 ft 460 kts 359°
2026-05-07 13:37 42.19082 9.91535 29300 ft 462 kts 359°
2026-05-07 13:37 42.21206 9.91830 29527 ft 463 kts 358°
2026-05-07 13:37 42.25514 9.92422 29958 ft 466 kts 358°
2026-05-07 13:38 42.27656 9.92715 30142 ft 467 kts 358°
2026-05-07 13:38 42.30910 9.93161 30396 ft 470 kts 358°
2026-05-07 13:38 42.34166 9.93609 30646 ft 472 kts 358°
2026-05-07 13:38 42.37443 9.94061 30894 ft 474 kts 358°
2026-05-07 13:39 42.40733 9.94518 31139 ft 476 kts 358°
2026-05-07 13:39 42.43992 9.94971 31403 ft 477 kts 358°
2026-05-07 13:39 42.47294 9.95428 31749 ft 476 kts 358°
2026-05-07 13:39 42.50588 9.95889 31967 ft 476 kts 359°
2026-05-07 13:40 42.53849 9.96354 32007 ft 464 kts 358°
2026-05-07 13:40 42.60186 9.97252 32023 ft 454 kts 358°
2026-05-07 13:41 42.66460 9.98111 32005 ft 452 kts 358°
2026-05-07 13:41 42.72723 9.98969 32005 ft 452 kts 358°
2026-05-07 13:42 42.79000 9.99845 32002 ft 452 kts 358°
2026-05-07 13:42 42.85235 10.00724 32011 ft 457 kts 358°
2026-05-07 13:43 42.91685 10.01619 32012 ft 473 kts 358°
2026-05-07 13:43 42.98269 10.02540 32011 ft 476 kts 359°
2026-05-07 13:44 43.04871 10.03488 32010 ft 476 kts 359°
2026-05-07 13:44 43.11460 10.04432 32011 ft 476 kts 359°
2026-05-07 13:45 43.18007 10.05354 32010 ft 476 kts 359°
2026-05-07 13:45 43.24596 10.06286 32035 ft 475 kts 359°
2026-05-07 13:46 43.31183 10.07237 32024 ft 475 kts 359°
2026-05-07 13:46 43.37761 10.08181 32020 ft 475 kts 359°
2026-05-07 13:47 43.44293 10.09110 32026 ft 475 kts 359°
2026-05-07 13:47 43.50872 10.10044 32029 ft 475 kts 359°
2026-05-07 13:48 43.57444 10.10990 32019 ft 475 kts 359°
2026-05-07 13:48 43.64011 10.11941 32045 ft 474 kts 359°
2026-05-07 13:49 43.70571 10.12886 32034 ft 474 kts 359°
2026-05-07 13:49 43.73854 10.13359 31866 ft 475 kts 359°
2026-05-07 13:49 43.77127 10.13833 31406 ft 469 kts 359°
2026-05-07 13:49 43.80349 10.14307 30985 ft 463 kts 359°
2026-05-07 13:50 43.83533 10.14778 30541 ft 456 kts 359°
2026-05-07 13:50 43.86663 10.15236 30107 ft 449 kts 359°
2026-05-07 13:50 43.89754 10.15688 29601 ft 443 kts 359°
2026-05-07 13:50 43.92802 10.16133 29093 ft 437 kts 359°
2026-05-07 13:51 43.95810 10.16568 28599 ft 431 kts 359°
2026-05-07 13:51 43.98741 10.16990 28142 ft 426 kts 359°
2026-05-07 13:51 44.01675 10.17417 27662 ft 421 kts 359°
2026-05-07 13:51 44.04580 10.17841 27188 ft 416 kts 359°
2026-05-07 13:52 44.07452 10.18263 26723 ft 412 kts 359°
2026-05-07 13:52 44.10294 10.18678 26255 ft 408 kts 359°
2026-05-07 13:52 44.13097 10.19084 25800 ft 401 kts 360°
2026-05-07 13:52 44.15849 10.19489 25362 ft 396 kts 360°
2026-05-07 13:53 44.18578 10.19889 24938 ft 392 kts 360°
2026-05-07 13:53 44.21283 10.20283 24506 ft 389 kts
2026-05-07 13:53 44.23963 10.20679 24072 ft 386 kts 360°
2026-05-07 13:53 44.26598 10.21067 23657 ft 384 kts
2026-05-07 13:54 44.29248 10.21458 23178 ft 382 kts
2026-05-07 13:54 44.31880 10.21846 22662 ft 379 kts
2026-05-07 13:54 44.34495 10.22229 22174 ft 376 kts
2026-05-07 13:54 44.37084 10.22611 21698 ft 373 kts
2026-05-07 13:55 44.39660 10.22992 21224 ft 372 kts
2026-05-07 13:55 44.42232 10.23373 20758 ft 370 kts
2026-05-07 13:55 44.44795 10.23754 20302 ft 368 kts
2026-05-07 13:55 44.47335 10.24134 19855 ft 366 kts
2026-05-07 13:56 44.49861 10.24510 19416 ft 364 kts
2026-05-07 13:56 44.52377 10.24883 18980 ft 362 kts
2026-05-07 13:56 44.54884 10.25251 18552 ft 359 kts
2026-05-07 13:56 44.57301 10.25612 18115 ft 350 kts
2026-05-07 13:57 44.59723 10.25967 17625 ft 349 kts
2026-05-07 13:57 44.62132 10.26318 17145 ft 347 kts
2026-05-07 13:57 44.64531 10.26673 16674 ft 346 kts
2026-05-07 13:57 44.66924 10.27030 16212 ft 345 kts
2026-05-07 13:58 44.69310 10.27387 15753 ft 345 kts
2026-05-07 13:58 44.71724 10.27751 15298 ft 344 kts
2026-05-07 13:58 44.74100 10.28107 14860 ft 343 kts
2026-05-07 13:58 44.76437 10.28458 14426 ft 342 kts
2026-05-07 13:59 44.78800 10.28598 13999 ft 337 kts 351°
2026-05-07 13:59 44.81050 10.27884 13539 ft 326 kts 342°
2026-05-07 13:59 44.83221 10.27041 13055 ft 314 kts 342°
2026-05-07 13:59 44.85307 10.26233 12590 ft 311 kts 342°
2026-05-07 14:00 44.87372 10.25426 12126 ft 312 kts 342°
2026-05-07 14:00 44.89457 10.24606 11659 ft 307 kts 342°
2026-05-07 14:00 44.91498 10.23805 11214 ft 305 kts 342°
2026-05-07 14:00 44.93538 10.23001 10763 ft 302 kts 342°
2026-05-07 14:01 44.95555 10.22206 10320 ft 298 kts 342°
2026-05-07 14:01 44.97543 10.21425 9891 ft 294 kts 342°
2026-05-07 14:01 44.99520 10.20650 9414 ft 295 kts 342°
2026-05-07 14:01 45.01475 10.19883 8934 ft 291 kts 342°
2026-05-07 14:02 45.03421 10.19117 8459 ft 287 kts 342°
2026-05-07 14:02 45.05342 10.18359 8008 ft 287 kts 342°
2026-05-07 14:02 45.07267 10.17600 7553 ft 286 kts 342°
2026-05-07 14:02 45.09164 10.16853 7116 ft 287 kts 342°
2026-05-07 14:03 45.11088 10.16095 6685 ft 287 kts 342°
2026-05-07 14:03 45.13005 10.15340 6323 ft 284 kts 342°
2026-05-07 14:03 45.14899 10.14592 5936 ft 281 kts 342°
2026-05-07 14:03 45.16776 10.13851 5557 ft 278 kts 342°
2026-05-07 14:04 45.18634 10.13115 5171 ft 275 kts 342°
2026-05-07 14:04 45.20468 10.12389 4797 ft 272 kts 343°
2026-05-07 14:04 45.22284 10.11669 4413 ft 269 kts 343°
2026-05-07 14:04 45.24059 10.10966 4037 ft 267 kts 343°
2026-05-07 14:05 45.25840 10.10259 3661 ft 265 kts 343°
2026-05-07 14:05 45.27609 10.09555 3289 ft 263 kts 343°
2026-05-07 14:05 45.29367 10.08859 3010 ft 259 kts 343°
2026-05-07 14:05 45.31112 10.08168 3000 ft 261 kts 343°
2026-05-07 14:06 45.32862 10.07472 3003 ft 262 kts 343°
2026-05-07 14:06 45.34614 10.06772 3006 ft 262 kts 343°
2026-05-07 14:06 45.36366 10.06072 3004 ft 261 kts 343°
2026-05-07 14:06 45.38115 10.05374 3001 ft 261 kts 343°
2026-05-07 14:07 45.39873 10.04674 3004 ft 261 kts 343°
2026-05-07 14:07 45.41603 10.03988 3002 ft 261 kts 343°
2026-05-07 14:07 45.43358 10.03285 3005 ft 261 kts 343°
2026-05-07 14:07 45.45071 10.02600 2997 ft 247 kts 343°
2026-05-07 14:08 45.46667 10.01963 2998 ft 229 kts 343°
2026-05-07 14:08 45.48138 10.01374 3007 ft 215 kts 344°
2026-05-07 14:08 45.49544 10.00815 3006 ft 205 kts 343°
2026-05-07 14:08 45.50887 10.00280 2999 ft 196 kts 343°
2026-05-07 14:09 45.52170 9.99766 3034 ft 189 kts 342°
2026-05-07 14:09 45.53422 9.99264 3019 ft 186 kts 343°
2026-05-07 14:09 45.54669 9.98763 3013 ft 186 kts 342°
2026-05-07 14:09 45.55913 9.98262 3005 ft 186 kts 342°
2026-05-07 14:10 45.57153 9.97764 3002 ft 185 kts 342°
2026-05-07 14:10 45.58377 9.97269 3001 ft 180 kts 342°
2026-05-07 14:10 45.59581 9.96781 3011 ft 179 kts 343°
2026-05-07 14:10 45.60756 9.96257 3006 ft 178 kts 334°
2026-05-07 14:11 45.61777 9.95242 3007 ft 177 kts 312°
2026-05-07 14:11 45.62433 9.93814 3004 ft 175 kts 290°
2026-05-07 14:11 45.62771 9.92147 3006 ft 174 kts 284°
2026-05-07 14:11 45.63085 9.90476 3008 ft 174 kts 284°
2026-05-07 14:12 45.63399 9.88802 2991 ft 175 kts 283°
2026-05-07 14:12 45.63714 9.87128 2833 ft 174 kts 284°
2026-05-07 14:12 45.64025 9.85471 2626 ft 171 kts 283°
2026-05-07 14:12 45.64331 9.83838 2414 ft 170 kts 283°
2026-05-07 14:13 45.64636 9.82210 2179 ft 168 kts 283°
2026-05-07 14:13 45.64933 9.80623 1967 ft 163 kts 284°
2026-05-07 14:13 45.65219 9.79093 1755 ft 156 kts 283°
2026-05-07 14:13 45.65489 9.77652 1569 ft 146 kts 284°
2026-05-07 14:14 45.65746 9.76273 1362 ft 142 kts 283°
2026-05-07 14:14 45.65998 9.74930 1171 ft 138 kts 283°
2026-05-07 14:14 45.66251 9.73598 999 ft 138 kts 282°
2026-05-07 14:14 45.66493 9.72274 814 ft 137 kts 282°
2026-05-07 14:15 45.66712 9.71056 787 ft 109 kts 283°
2026-05-07 14:15 45.66863 9.70253 787 ft 59 kts 285°
2026-05-07 14:15 45.66935 9.69871 790 ft 33 kts 284°
2026-05-07 14:15 45.66993 9.69551 787 ft 32 kts 285°
2026-05-07 14:16 45.67049 9.69244 787 ft 31 kts 284°
2026-05-07 14:16 45.67021 9.69008 787 ft 20 kts 208°
2026-05-07 14:16 45.66917 9.69044 787 ft 17 kts 114°
2026-05-07 14:16 45.66888 9.69202 787 ft 16 kts 103°
2026-05-07 14:17 45.66863 9.69347 787 ft 14 kts 104°
2026-05-07 14:17 45.66840 9.69475 787 ft 12 kts 104°
2026-05-07 14:17 45.66819 9.69587 790 ft 11 kts 105°
2026-05-07 14:17 45.66798 9.69696 787 ft 13 kts 105°
2026-05-07 14:18 45.66772 9.69835 787 ft 14 kts 104°
2026-05-07 14:18 45.66734 9.69945 787 ft 12 kts 158°
2026-05-07 14:18 45.66676 9.69930 787 ft 6 kts 195°
2026-05-07 14:18 45.66654 9.69922 787 ft 1 kts 194°
2026-05-07 14:19 45.66651 9.69921 787 ft 0 kts 194°